C/2020 T2 ( Palomar )

Japanese version
Home page
Updated on July 16, 2022

---------------------------------------------------------------------

* Profile

Discovery Date October 7, 2020
Magnitude 19.3 mag
Discoverer Dmitry A. Duev (Palomar, Zwicky Transient Facility's Twilight Survey)

* Pictures

* Orbital Elements

Epoch 2022 Aug. 9.0 TT = JDT 2459800.5
T 2021 July 11.20634 TT                                 Rudenko
q   2.0560276            (2000.0)            P               Q
z  +0.0030795      Peri.  150.46855     -0.53840907     +0.70353835
 +/-0.0000006      Node    83.01053     -0.83532749     -0.37301120
e   0.9936685      Incl.   27.86014     -0.11110202     -0.60489373
From 2688 observations 2019 Dec. 11-2022 June 4, mean residual 0".4.

* Finding Charts

* Magnitudes Graph

        m1 = 2.7 + 5 log d + 19.0 log r(t - 20)

---------------------------------------------------------------------

The orbital elements are published on M.P.E.C. 2022-L66.
The charts are made with StellaNavigator Ver.10 (AstroArts).
The magnitudes graphs are made with Comet for Windows.

---------------------------------------------------------------------

Copyright(C) Seiichi Yoshida (comet@aerith.net). All rights reserved.